Wind_Speed
61 61 61 61 62 62 62 61 61 60 58 54 50 48 46 43 41 40 37 35 33 31 31 29 26 23 21 20 21 21 21 23 25 28 30 30 30 29 28 28 28 29 30
64 64 64 63 63 64 65 66 66 65 63 59 54 50 51 49 44 41 38 36 33 31 30 30 27 24 21 20 20 20 20 21 23 25 28 29 30 30 30 31 31 31 30
67 67 68 68 68 68 68 69 71 70 68 64 58 52 51 51 48 44 41 38 34 31 29 29 27 24 22 21 20 20 19 19 21 25 27 30 31 32 32 32 32 31 28
74 74 74 75 75 75 74 74 75 75 72 69 64 59 54 53 53 50 46 43 37 32 30 29 27 25 23 22 20 19 18 18 19 23 27 30 32 33 33 32 31 29 28
77 77 78 79 80 80 81 81 81 79 74 72 69 65 61 59 60 58 53 49 42 35 32 31 30 27 25 23 21 19 18 18 18 21 24 28 31 32 31 30 30 29 27
57 56 57 59 62 66 72 78 81 82 81 78 77 74 68 62 61 62 58 53 47 40 35 33 32 30 27 24 23 21 19 18 19 20 21 22 25 27 28 31 32 29 26
35 34 34 35 37 39 43 49 55 61 67 72 76 75 70 65 60 57 57 56 52 45 40 36 33 32 29 26 24 23 20 18 18 19 19 19 20 23 26 28 28 28 25
35 35 36 36 35 34 32 30 31 32 37 45 55 63 65 66 64 57 52 53 53 49 44 40 35 32 30 27 25 24 21 17 16 16 17 17 19 22 23 24 25 24 22
43 43 43 43 42 40 37 35 32 29 28 28 31 38 49 57 63 64 59 54 52 50 47 42 37 34 31 28 27 25 22 18 15 14 15 16 20 22 22 21 21 21 19
46 46 46 46 46 43 41 39 37 34 30 28 26 26 29 39 52 60 63 60 57 54 51 47 42 38 34 31 29 27 24 21 18 16 15 17 20 23 23 21 19 17 16
48 48 47 46 45 42 40 37 36 34 32 29 28 27 27 28 35 47 57 60 56 55 54 51 48 43 38 35 32 30 27 23 20 18 17 18 19 20 20 20 19 18 16
51 49 48 46 44 41 39 37 37 36 34 33 31 29 28 29 30 36 47 56 57 55 55 55 51 46 42 38 34 33 30 25 21 18 17 16 17 17 18 19 17 16 16
51 49 47 45 42 41 40 39 39 39 37 36 33 30 29 29 29 31 41 54 57 54 52 52 51 49 46 41 37 34 32 27 23 19 16 16 18 19 19 17 17 16 16
47 45 44 42 40 39 39 37 37 37 38 37 34 31 30 29 29 29 37 53 59 53 51 51 51 50 47 43 38 35 32 28 24 20 18 18 19 19 18 18 17 17 17
42 40 38 38 37 36 36 35 34 35 35 34 33 30 29 29 28 28 32 48 59 53 50 51 51 49 44 40 37 33 31 28 25 22 20 20 19 18 18 18 17 17 17
34 32 31 31 32 32 31 31 31 33 33 33 32 29 27 28 27 27 29 42 56 54 49 47 46 44 40 37 33 30 29 28 26 24 23 22 21 20 19 18 18 17 16
28 26 26 27 27 27 27 27 28 30 31 32 31 29 28 27 26 24 27 38 52 53 47 44 42 39 36 33 31 29 29 28 26 24 23 23 23 21 20 19 18 16 16
22 22 21 21 20 19 19 22 25 27 27 27 26 26 26 24 21 20 23 35 46 46 43 41 39 36 33 31 29 29 28 26 24 23 24 23 22 20 20 19 18 17 15
20 18 15 11 9 9 12 17 21 23 22 20 19 19 18 17 17 22 27 35 44 43 42 39 37 34 32 30 29 29 28 27 25 24 23 22 21 20 20 19 17 16 16
18 14 10 6 5 9 14 19 22 22 19 15 12 11 13 17 25 30 34 41 41 39 38 36 34 33 32 30 30 30 29 28 26 24 22 20 19 19 18 17 16 16 17
26 24 23 22 22 23 25 26 25 22 17 13 11 12 18 26 31 34 37 38 36 34 34 34 32 32 31 31 31 31 30 28 25 21 19 18 17 17 16 16 16 17 18
31 30 30 29 28 27 26 24 21 18 16 14 14 18 25 31 33 34 35 33 31 29 28 29 29 30 31 31 31 30 28 26 22 19 17 16 16 16 15 15 16 18 20
26 25 25 25 24 23 22 19 18 17 17 17 18 24 29 33 34 33 32 30 28 26 27 28 27 27 29 30 30 27 25 23 20 17 16 15 15 14 15 16 17 19 20
25 22 20 18 18 18 17 17 18 18 18 19 23 29 33 35 34 31 27 25 24 24 26 26 25 25 26 27 26 24 22 20 18 16 15 14 14 15 16 17 18 18 19
32 28 23 19 17 16 16 16 17 18 19 22 27 32 35 34 31 27 24 22 22 23 24 25 24 24 25 24 23 21 19 18 16 15 14 14 16 17 17 17 17 18 18
38 36 34 31 28 26 23 22 22 24 25 28 30 32 33 30 26 22 20 19 20 21 23 23 23 23 23 22 20 18 17 16 15 14 15 16 17 17 17 17 17 18 19
Wind_Direction
277 276 274 274 274 274 274 274 275 276 276 275 273 268 268 271 267 263 262 263 266 272 276 279 284 291 299 308 310 301 287 273 262 255 252 250 251 252 252 252 254 259 263
276 274 273 271 271 272 272 272 272 272 273 272 272 269 265 267 267 261 257 258 262 268 273 275 277 283 293 304 310 307 296 280 267 257 250 247 248 249 251 253 257 261 265
274 273 272 270 269 269 269 269 269 269 269 269 268 267 265 262 262 261 256 254 258 264 270 271 272 277 286 296 306 308 303 288 270 258 250 246 247 249 251 255 259 261 261
273 271 270 269 268 267 267 267 267 267 267 267 266 266 266 261 257 257 256 252 253 259 265 268 269 272 279 287 297 302 302 294 277 260 251 249 251 252 254 257 258 259 257
275 272 270 268 267 266 264 264 264 264 264 264 264 265 269 267 257 253 253 250 248 253 261 266 268 270 273 280 287 291 292 289 279 265 256 255 256 257 257 257 256 256 253
285 283 279 274 271 268 265 264 263 263 262 261 260 262 265 265 258 250 249 246 242 247 256 263 266 267 269 273 279 281 282 279 274 266 260 261 260 256 252 250 247 245 240
293 292 290 287 283 278 272 268 265 263 261 259 258 259 259 257 254 248 243 240 239 242 249 257 262 263 264 267 272 275 276 271 267 265 262 262 256 247 240 234 230 228 228
289 287 286 286 287 286 282 277 271 266 260 256 253 253 252 249 248 246 241 238 237 239 245 251 256 259 261 263 267 270 271 266 261 259 259 254 245 234 226 225 225 226 226
288 286 285 284 283 280 276 273 270 267 263 259 255 252 248 243 241 241 241 239 239 239 241 245 248 253 256 259 263 265 265 260 252 254 255 248 239 232 231 232 232 225 214
288 286 284 283 282 278 273 269 265 263 262 260 258 258 255 246 238 235 234 236 238 239 240 242 244 248 251 254 258 260 260 254 246 243 243 240 239 242 243 233 220 206 198
287 284 283 282 279 276 270 265 259 256 255 256 257 257 258 256 246 235 227 225 227 233 237 239 241 243 245 248 252 254 255 251 243 236 234 236 240 242 233 213 198 192 189
285 282 281 280 277 272 266 261 255 252 251 252 254 256 259 261 259 245 227 217 216 224 229 232 235 237 238 241 244 248 249 246 241 234 229 229 228 224 216 206 199 194 190
285 282 279 277 273 269 265 259 254 250 249 249 249 250 255 260 261 254 232 216 210 212 217 221 226 230 232 234 237 241 243 240 236 230 226 225 223 220 213 202 195 194 194
286 282 278 274 270 267 264 259 253 249 246 243 241 242 249 255 259 257 238 219 209 205 207 214 219 224 226 228 230 233 235 235 231 225 216 215 214 209 201 197 197 199 201
288 283 277 273 269 265 260 255 251 246 241 237 235 239 247 252 258 256 246 223 210 203 202 209 214 217 219 220 222 224 226 228 225 218 210 208 205 201 199 200 204 206 209
292 286 279 274 270 265 259 252 245 238 234 229 228 235 245 251 256 256 246 224 209 200 198 200 204 208 210 212 213 215 218 220 216 213 209 204 200 199 203 208 211 212 217
300 292 284 279 274 267 258 247 235 227 223 223 225 233 244 249 252 249 235 214 204 198 195 193 195 199 201 203 204 208 211 212 210 207 204 197 194 199 206 211 213 217 225
311 302 293 284 274 263 248 232 221 215 213 215 223 233 241 247 242 225 205 200 195 190 188 188 190 192 193 195 198 200 201 201 197 193 189 188 192 201 209 213 218 227 238
328 321 311 294 271 246 218 203 196 193 194 200 212 226 232 225 199 174 170 180 182 182 184 186 187 187 188 190 191 190 189 187 183 181 183 189 197 207 215 221 230 240 251
9 14 24 50 108 141 149 153 156 158 163 172 191 202 193 173 158 153 160 170 174 179 183 186 186 185 184 184 183 182 180 178 178 181 186 195 205 215 224 233 242 252 259
49 58 67 79 94 108 120 128 133 139 146 156 165 165 159 151 147 150 158 164 168 173 179 183 183 179 177 177 176 176 176 177 179 184 192 203 214 224 233 242 250 258 264
60 67 73 81 89 99 108 115 121 129 137 140 142 144 145 144 145 149 154 157 161 168 173 174 174 174 174 175 175 176 177 179 183 190 202 214 224 232 240 248 256 263 268
61 68 74 81 88 94 100 107 116 123 128 130 132 136 140 143 145 147 150 155 160 166 169 170 171 174 174 175 177 179 182 185 192 202 214 223 231 239 248 256 263 268 272
63 70 78 88 95 102 108 115 120 125 125 124 129 136 139 141 142 141 141 146 154 160 166 168 169 172 173 176 180 184 188 195 204 214 223 233 244 253 259 263 267 271 274
62 67 72 81 95 107 115 121 126 126 123 124 129 135 139 139 138 137 135 139 148 156 161 163 165 169 171 175 179 185 192 203 213 223 234 247 257 262 263 264 266 269 272
64 69 73 79 87 93 101 109 117 121 122 124 128 132 135 135 133 133 135 141 148 153 156 158 161 166 171 176 182 190 200 211 222 234 247 256 260 261 262 263 264 266 270
Height
5743 5741 5740 5739 5738 5737 5738 5739 5739 5739 5741 5744 5747 5750 5751 5751 5751 5752 5753 5754 5755 5754 5753 5751 5749 5747 5745 5742 5739 5737 5735 5735 5737 5739 5741 5743 5746 5749 5752 5755 5757 5759 5760
5724 5722 5721 5720 5719 5719 5719 5720 5720 5722 5724 5726 5730 5733 5736 5739 5740 5741 5743 5744 5745 5745 5744 5743 5741 5740 5738 5735 5732 5730 5728 5728 5729 5730 5733 5735 5738 5741 5744 5746 5748 5750 5752
5705 5703 5701 5700 5700 5699 5699 5700 5701 5702 5704 5707 5711 5715 5719 5723 5727 5729 5731 5733 5735 5736 5735 5734 5733 5733 5731 5729 5726 5724 5722 5721 5721 5723 5725 5728 5730 5732 5735 5737 5739 5742 5744
5681 5680 5679 5677 5677 5677 5678 5679 5680 5682 5684 5688 5692 5696 5701 5706 5711 5715 5718 5721 5724 5726 5726 5726 5725 5725 5724 5722 5720 5718 5716 5715 5715 5716 5718 5720 5722 5725 5727 5729 5731 5734 5737
5654 5652 5651 5651 5650 5651 5653 5654 5657 5660 5663 5667 5670 5675 5681 5687 5693 5698 5703 5708 5712 5715 5716 5717 5717 5717 5717 5716 5714 5713 5711 5710 5710 5710 5712 5714 5715 5717 5720 5722 5724 5727 5729
5626 5624 5623 5622 5623 5623 5625 5627 5630 5635 5639 5644 5648 5653 5660 5666 5673 5679 5686 5693 5698 5703 5705 5707 5708 5708 5709 5710 5709 5707 5706 5704 5704 5705 5707 5708 5709 5710 5712 5715 5717 5720 5723
5610 5608 5606 5604 5603 5603 5603 5604 5606 5609 5613 5618 5624 5630 5638 5647 5654 5661 5667 5675 5682 5689 5693 5696 5698 5700 5701 5703 5703 5702 5700 5698 5699 5700 5701 5703 5704 5705 5707 5709 5711 5715 5719
5599 5597 5595 5593 5592 5591 5591 5591 5592 5593 5594 5597 5600 5605 5613 5623 5634 5643 5650 5657 5665 5673 5680 5685 5688 5690 5692 5695 5696 5696 5695 5693 5693 5695 5697 5699 5700 5702 5704 5706 5709 5711 5715
5587 5584 5582 5580 5579 5579 5579 5580 5581 5582 5583 5584 5585 5587 5592 5600 5611 5622 5632 5640 5649 5658 5665 5672 5677 5680 5683 5686 5689 5690 5690 5689 5689 5690 5693 5695 5697 5699 5701 5704 5706 5708 5711
5572 5569 5567 5565 5564 5564 5565 5567 5568 5569 5571 5573 5575 5577 5579 5583 5590 5600 5612 5623 5633 5642 5651 5658 5665 5670 5674 5677 5680 5683 5684 5684 5685 5686 5688 5691 5694 5696 5698 5700 5703 5706 5709
5555 5552 5550 5549 5548 5548 5550 5552 5553 5556 5559 5562 5564 5566 5568 5571 5575 5582 5592 5605 5616 5626 5635 5644 5652 5659 5664 5668 5672 5675 5678 5679 5680 5681 5684 5687 5690 5693 5695 5697 5699 5703 5706
5536 5534 5532 5531 5530 5531 5534 5537 5539 5542 5546 5549 5552 5555 5558 5560 5563 5568 5576 5588 5600 5611 5621 5630 5639 5647 5653 5658 5663 5667 5671 5673 5675 5676 5679 5682 5686 5689 5691 5694 5697 5701 5705
5516 5515 5513 5513 5513 5514 5517 5520 5524 5528 5532 5537 5541 5544 5548 5550 5553 5556 5562 5571 5583 5596 5606 5616 5626 5635 5642 5648 5653 5658 5663 5667 5670 5672 5675 5679 5682 5685 5688 5692 5696 5700 5703
5496 5495 5494 5494 5496 5497 5500 5503 5508 5513 5518 5523 5528 5533 5537 5540 5542 5545 5549 5557 5568 5581 5593 5604 5613 5622 5630 5638 5644 5649 5656 5661 5664 5667 5671 5674 5677 5682 5686 5690 5694 5697 5700
5479 5477 5477 5478 5480 5482 5485 5488 5493 5498 5504 5510 5516 5522 5526 5530 5532 5535 5537 5544 5555 5569 5582 5593 5602 5612 5621 5629 5636 5642 5649 5655 5659 5663 5666 5669 5674 5679 5684 5687 5691 5694 5698
5464 5463 5464 5464 5466 5468 5470 5474 5479 5486 5492 5499 5506 5512 5517 5520 5523 5525 5528 5533 5545 5559 5573 5583 5594 5605 5614 5622 5629 5635 5642 5649 5653 5658 5661 5666 5671 5676 5681 5685 5688 5692 5695
5454 5453 5453 5453 5453 5455 5457 5462 5468 5475 5482 5490 5497 5503 5508 5512 5515 5517 5520 5526 5538 5553 5567 5578 5589 5600 5609 5616 5623 5630 5637 5644 5648 5653 5657 5662 5668 5673 5678 5682 5685 5688 5691
5447 5445 5444 5443 5443 5445 5447 5453 5460 5468 5476 5485 5492 5497 5502 5505 5508 5511 5515 5524 5537 5552 5565 5576 5587 5596 5604 5612 5618 5626 5633 5639 5644 5649 5654 5660 5665 5671 5676 5679 5682 5684 5686
5443 5440 5438 5437 5438 5439 5443 5449 5456 5465 5474 5482 5488 5494 5497 5501 5504 5508 5516 5527 5541 5554 5565 5575 5584 5593 5601 5608 5616 5623 5630 5636 5642 5647 5653 5658 5663 5668 5672 5675 5677 5679 5681
5443 5439 5437 5436 5437 5440 5445 5451 5459 5468 5476 5483 5489 5492 5496 5499 5504 5511 5521 5533 5544 5555 5566 5575 5583 5591 5599 5607 5614 5621 5628 5634 5640 5646 5651 5656 5661 5665 5668 5670 5672 5674 5675
5450 5447 5445 5445 5446 5449 5454 5460 5468 5475 5481 5487 5490 5494 5497 5503 5510 5518 5528 5539 5549 5558 5567 5576 5584 5591 5599 5607 5614 5620 5627 5633 5639 5644 5649 5654 5658 5661 5664 5666 5667 5668 5669
5464 5461 5460 5460 5462 5464 5468 5473 5478 5483 5487 5491 5495 5498 5503 5510 5518 5527 5537 5546 5555 5563 5571 5579 5586 5593 5600 5607 5614 5621 5627 5633 5638 5643 5648 5652 5655 5658 5659 5660 5661 5662 5663
5477 5475 5474 5475 5475 5477 5480 5483 5487 5491 5495 5499 5502 5506 5512 5520 5528 5537 5545 5553 5560 5567 5574 5581 5589 5596 5602 5609 5615 5621 5627 5632 5637 5642 5646 5649 5652 5653 5654 5655 5656 5656 5656
5489 5487 5486 5486 5487 5488 5491 5493 5496 5499 5503 5507 5511 5516 5523 5530 5538 5546 5553 5559 5565 5572 5578 5584 5591 5598 5604 5610 5616 5621 5627 5632 5637 5641 5644 5646 5647 5648 5649 5650 5651 5651 5650
5504 5501 5499 5497 5497 5498 5500 5502 5505 5508 5512 5516 5521 5527 5533 5540 5548 5554 5560 5566 5571 5577 5582 5588 5594 5601 5606 5611 5617 5622 5627 5632 5635 5638 5640 5642 5643 5644 5644 5644 5645 5644 5644
5521 5517 5514 5511 5510 5510 5511 5512 5515 5518 5522 5527 5532 5537 5544 5551 5557 5562 5567 5572 5577 5582 5587 5592 5598 5603 5608 5613 5618 5623 5627 5630 5632 5634 5636 5637 5638 5638 5638 5638 5638 5637 5637